Theta_e
331 332 335 335 335 333 333 332 327 330 332 331 330 333 332 332 331 333 331 331 329 329 328 324 325 326 326 326 327 326 325 324 320 324 326 330 329 329 325 329 327 320 317
329 330 333 335 334 334 332 333 328 329 332 332 333 332 332 333 334 331 330 329 328 327 326 324 323 325 324 324 325 324 324 325 323 320 323 326 325 327 323 325 324 321 316
325 327 332 334 332 334 333 332 329 328 330 332 332 332 332 332 332 331 332 330 329 327 326 324 323 324 323 324 323 324 326 329 324 322 321 323 322 322 320 324 326 326 323
323 326 329 334 332 334 334 334 332 332 329 329 332 332 331 331 332 333 332 330 330 329 327 326 325 325 324 325 325 324 326 326 323 322 321 320 320 324 322 322 320 322 319
321 325 328 333 336 334 333 333 332 332 332 331 332 332 331 332 333 331 332 330 329 328 328 328 326 325 323 325 327 325 326 325 323 319 317 318 319 319 319 321 319 319 320
321 322 326 327 331 333 333 332 331 330 331 330 325 326 325 320 307 316 328 330 329 328 327 326 323 317 315 313 316 317 323 321 319 318 318 316 317 320 320 319 319 317 315
320 320 323 325 326 330 330 330 329 331 333 328 326 325 323 316 305 308 317 328 327 327 326 323 322 322 321 318 309 310 310 310 317 328 321 322 323 323 323 321 319 319 318
319 318 321 322 323 327 328 329 331 332 331 330 326 325 320 309 305 306 318 331 331 329 328 325 321 325 322 324 324 323 323 323 324 326 326 326 322 320 326 326 325 324 324
318 318 318 320 323 324 326 329 332 333 332 330 328 326 319 315 302 302 319 328 329 326 326 326 328 322 305 305 322 321 321 316 303 302 300 298 297 298 302 317 317 315 313
319 320 318 319 323 324 329 330 332 334 332 328 328 328 319 318 298 299 307 325 324 323 322 313 305 316 300 302 322 322 319 319 312 308 311 306 301 306 300 309 310 306 305
321 321 321 320 324 327 332 332 332 332 330 331 328 329 327 321 309 298 297 316 321 317 316 316 308 299 297 297 303 319 311 309 311 316 316 319 320 319 313 311 313 309 306
321 321 321 324 320 326 330 330 330 330 332 328 329 326 327 324 310 297 295 298 299 318 313 313 306 295 296 296 301 297 298 306 312 313 314 315 317 316 314 317 318 316 314
322 322 324 323 322 326 328 328 326 328 326 322 323 321 321 324 315 300 295 295 301 314 312 307 295 295 296 295 294 297 297 309 311 311 313 318 317 315 312 313 312 309 309
324 325 325 322 322 325 326 327 323 323 322 321 319 318 319 320 321 313 308 302 298 309 301 300 298 299 300 304 300 296 303 309 311 314 315 312 311 309 307 306 305 305 303
325 325 325 323 321 324 325 325 324 325 320 321 320 319 319 317 319 312 309 312 315 315 318 313 313 312 309 310 312 314 314 312 312 316 311 308 305 304 304 305 303 302 301
325 324 323 323 321 323 322 324 302 306 303 299 300 313 320 311 300 300 300 300 301 300 311 316 315 315 314 314 315 315 319 315 313 308 305 303 302 302 300 302 303 302 301
326 325 322 320 322 320 321 321 318 308 297 296 299 300 302 306 299 298 298 298 296 298 312 313 318 318 319 319 319 316 308 307 306 304 304 302 301 301 301 301 301 299 299
328 311 323 321 323 321 320 320 321 318 315 313 299 304 295 294 295 295 294 298 304 303 313 315 316 319 320 313 310 306 305 305 304 303 302 302 303 303 300 299 299 298 298
327 325 324 324 322 321 321 320 318 319 317 317 311 303 294 292 292 292 295 312 311 310 310 313 318 317 311 310 306 306 305 304 304 302 302 302 301 300 299 299 298 292 293
328 314 317 324 322 322 321 320 318 317 318 316 316 312 307 304 308 307 309 314 314 313 313 317 315 311 308 306 306 305 304 304 303 302 301 301 302 301 299 299 298 297 296
328 326 312 323 323 322 322 321 320 319 317 317 316 313 300 310 309 309 309 310 312 314 321 316 310 309 309 308 304 304 302 299 299 299 301 302 301 299 299 299 297 296 295
329 329 324 323 324 322 323 322 322 320 320 318 317 310 294 311 311 310 311 311 317 318 313 310 310 309 308 305 304 300 299 299 300 301 300 300 300 298 298 297 296 295 294
329 329 328 325 325 313 321 322 321 323 322 321 316 306 306 309 311 313 313 313 313 312 312 310 306 304 303 302 301 300 299 299 300 300 299 298 298 296 297 295 295 293 293
329 328 328 328 325 324 325 323 324 311 323 319 313 310 309 317 314 310 310 311 311 310 307 304 302 300 300 300 300 299 297 298 300 300 300 298 297 296 297 294 293 293 291
327 331 329 331 327 324 325 325 328 323 322 320 316 314 316 310 310 311 310 310 306 302 300 300 299 299 299 298 296 294 288 287 293 290 299 299 297 296 293 291 291 291 289
327 326 328 329 328 326 326 326 325 326 322 319 319 314 312 311 311 308 303 300 300 299 298 299 299 298 297 295 294 287 286 286 287 286 295 298 295 291 290 290 290 288 287
Wind_Speed
4 4 2 5 3 6 6 5 5 3 6 8 9 8 8 8 10 9 9 10 11 10 8 9 12 11 8 8 7 5 4 3 7 3 5 7 6 6 6 3 5 6 5
5 6 3 5 5 7 7 5 6 7 6 6 8 8 7 8 8 10 11 10 11 12 10 10 10 8 9 9 7 6 5 4 6 10 5 5 4 5 6 5 5 8 8
6 7 3 5 6 5 6 8 5 6 7 6 6 6 7 6 7 10 9 10 8 10 10 10 10 11 10 7 7 6 4 4 4 7 6 3 2 4 3 4 6 4 3
7 8 4 5 7 5 5 7 6 7 6 7 4 5 8 6 6 9 9 9 9 9 9 10 10 8 11 10 7 6 3 6 5 6 6 5 4 5 5 4 2 2 2
8 9 5 5 5 5 5 5 11 9 6 6 5 2 8 10 6 10 9 8 9 11 9 9 9 8 8 7 5 4 4 5 5 5 5 4 4 3 5 4 5 5 6
7 10 8 6 5 5 6 5 6 5 7 7 7 8 7 6 6 12 11 7 7 8 9 8 6 9 6 9 8 6 4 7 4 4 4 5 6 6 5 6 4 4 4
8 11 10 7 7 6 6 5 4 5 5 9 9 8 6 6 11 10 12 8 8 7 10 11 10 8 8 8 8 11 8 10 5 5 5 4 6 7 6 5 5 3 3
10 11 11 10 9 7 7 6 5 4 5 6 8 7 6 4 10 10 10 7 6 7 7 7 8 7 6 7 6 5 4 5 5 4 2 4 5 4 3 2 3 2 3
11 12 12 12 11 8 7 8 6 4 4 4 6 8 7 4 6 9 5 6 6 5 8 6 7 7 7 6 7 7 5 2 4 9 9 7 7 8 5 3 3 2 3
12 12 12 12 11 10 7 8 6 5 5 4 5 7 9 5 1 4 5 2 6 4 6 6 8 8 9 8 2 6 6 5 4 3 2 2 4 6 7 5 2 0 1
12 12 12 10 10 9 8 6 6 5 6 5 6 6 7 8 6 5 5 2 4 5 5 4 4 10 11 9 7 5 3 3 3 4 2 3 4 6 3 3 4 3 1
13 13 12 10 10 9 10 8 7 6 5 5 6 5 5 7 9 5 6 6 7 2 7 5 6 10 10 8 7 6 8 5 3 2 2 2 2 6 3 5 5 4 5
11 11 11 12 9 10 10 9 7 6 5 6 5 5 5 7 5 11 10 8 6 3 4 9 14 10 9 6 8 5 3 1 1 1 1 4 7 7 8 5 5 6 5
11 10 11 12 9 11 9 8 8 8 7 8 7 7 5 7 7 5 5 5 4 7 9 8 8 8 7 4 6 4 3 3 1 2 3 6 5 7 6 3 3 4 3
11 11 12 10 10 10 10 10 9 9 10 7 7 7 6 8 9 11 10 7 6 5 8 5 4 4 5 4 3 4 4 3 3 5 7 6 6 5 4 4 3 2 2
11 11 11 11 10 9 9 8 4 3 15 8 5 5 8 9 18 19 16 14 14 12 2 4 4 5 6 7 7 6 4 7 6 8 7 5 5 4 3 3 3 2 2
12 12 11 11 11 10 10 9 9 3 11 5 9 5 3 10 21 21 19 17 15 10 5 5 5 6 6 5 8 10 9 7 7 7 6 4 3 1 2 2 4 5 4
14 15 11 12 11 12 10 11 9 10 8 5 3 1 6 10 13 18 17 14 5 2 5 4 5 5 5 11 11 10 8 8 7 6 4 3 4 3 4 4 4 4 5
15 12 13 12 11 13 11 11 11 10 11 9 5 3 8 11 11 7 12 9 9 7 6 5 4 8 10 10 10 9 8 7 5 4 2 3 5 3 4 4 5 6 4
15 17 14 11 12 11 13 12 12 12 10 12 11 10 8 5 5 6 4 4 6 7 9 5 9 10 11 10 9 8 8 5 4 3 4 5 4 5 3 4 4 4 4
12 12 12 10 11 13 11 13 12 12 11 12 12 13 19 14 12 10 8 7 5 4 7 11 11 11 10 9 8 7 6 6 5 5 4 3 5 4 3 3 4 4 3
10 13 15 15 12 13 9 10 10 13 12 12 12 12 19 12 12 10 10 7 4 9 9 12 12 10 10 9 8 8 8 5 5 4 5 3 4 3 1 3 2 3 4
9 9 12 13 11 10 13 10 12 9 10 7 11 11 13 10 10 9 9 12 11 12 11 12 13 10 8 9 8 6 7 7 4 4 4 2 4 3 2 1 3 4 3
9 10 10 11 11 11 9 10 9 9 7 10 11 12 12 6 12 15 14 12 12 12 11 11 12 13 11 10 9 8 7 5 3 3 3 3 3 2 4 5 4 4 3
5 4 7 6 9 10 9 7 3 5 10 10 9 10 11 14 16 13 13 13 12 12 13 12 10 14 13 15 10 13 10 9 6 3 3 3 5 8 6 4 3 2 4
8 8 5 5 6 6 4 4 5 5 9 10 9 12 12 12 12 12 12 13 12 12 15 11 12 17 17 13 14 11 9 6 5 4 2 3 5 6 4 4 6 3 5
Wind_Direction
163 103 153 110 105 84 87 94 101 57 108 101 104 102 119 112 127 117 110 113 112 111 110 107 112 119 118 109 113 110 134 120 123 129 126 161 176 151 162 202 154 163 178
160 126 151 111 88 94 100 98 95 79 61 77 106 112 111 128 140 131 135 136 134 130 131 126 122 118 122 122 125 154 191 189 140 140 139 154 138 129 163 176 182 190 188
162 122 157 115 95 95 116 118 125 95 86 90 86 115 119 130 145 133 126 128 125 125 130 133 130 128 137 143 153 182 201 151 151 123 128 118 103 132 170 213 212 218 181
151 135 161 126 134 138 142 137 132 112 101 93 112 100 132 148 136 126 130 127 130 135 136 124 127 146 155 175 186 202 204 136 138 136 146 157 158 178 175 185 225 235 187
157 136 161 139 151 147 133 109 132 131 138 134 119 118 94 120 145 134 125 137 131 133 137 127 149 175 168 188 198 206 210 146 143 158 154 141 158 155 195 202 194 208 231
157 143 161 171 166 132 109 114 110 117 132 128 88 80 69 72 63 116 122 126 110 116 136 141 137 124 144 180 185 134 119 146 170 146 159 164 191 179 188 206 212 206 246
165 152 165 183 155 143 142 133 108 111 98 106 95 86 71 59 44 76 111 110 118 130 143 145 158 155 148 122 103 100 94 99 110 110 145 174 176 185 186 195 216 222 244
184 162 169 178 161 169 152 132 108 92 92 107 114 107 94 66 46 46 108 112 119 135 139 120 120 130 122 132 133 126 104 73 44 58 76 58 53 26 26 185 193 268 293
188 167 172 181 162 172 162 141 139 135 124 126 126 124 114 108 62 56 77 101 106 115 88 90 134 121 122 79 153 155 152 124 82 70 83 95 80 66 65 28 336 319 300
187 176 171 181 165 170 160 151 151 163 157 178 138 138 140 138 144 86 44 103 119 104 103 88 50 128 104 66 182 151 151 182 160 150 191 145 184 167 157 158 131 322 324
190 179 167 170 161 161 149 151 155 174 172 210 151 145 142 145 175 188 103 355 147 147 138 138 112 111 103 73 57 71 92 307 135 155 217 221 195 200 196 151 159 133 24
193 179 166 154 168 160 153 159 165 184 175 194 150 152 149 147 156 197 114 68 17 193 158 157 135 136 125 100 85 98 61 39 29 341 332 324 330 82 90 112 116 64 36
196 175 158 152 170 155 157 161 169 187 202 186 180 178 181 158 161 161 157 120 34 78 29 122 123 123 121 110 129 114 104 136 219 246 314 46 53 56 47 42 47 39 16
193 167 155 156 165 157 166 171 184 184 207 185 199 194 195 167 159 156 155 138 115 100 105 114 149 160 172 152 138 176 192 217 243 47 44 82 56 45 47 38 38 8 343
184 168 161 164 169 164 178 182 195 185 197 195 201 191 194 176 176 167 164 168 163 172 135 138 153 161 180 197 211 169 184 177 111 82 64 54 54 43 24 14 353 337 262
182 174 172 168 174 175 183 187 135 233 180 122 102 198 195 178 156 163 165 164 166 169 153 175 180 195 198 195 197 185 121 93 72 85 83 71 58 33 3 318 295 267 342
188 179 177 179 172 188 184 201 186 66 78 95 134 94 136 167 165 167 166 165 167 140 198 221 206 201 208 203 90 94 89 80 83 76 76 63 59 356 287 318 17 23 16
186 178 185 190 181 188 188 194 195 190 184 180 302 108 123 130 157 148 140 121 130 231 198 223 221 203 82 106 105 105 99 89 86 83 77 25 317 337 35 28 23 19 8
185 186 188 185 203 183 195 191 206 197 190 188 120 97 81 80 88 95 157 162 170 185 204 232 229 101 104 100 101 104 109 112 106 133 110 117 84 17 27 23 33 38 22
187 191 185 198 190 211 192 198 196 209 191 188 173 165 150 132 155 164 204 204 186 191 203 148 100 103 102 104 105 105 105 90 109 78 65 52 51 74 30 36 17 4 8
184 179 184 198 222 198 216 199 203 202 209 191 190 169 170 175 176 182 185 197 217 236 120 118 110 99 102 102 108 114 107 108 102 95 127 113 86 66 16 36 25 17 354
198 180 187 202 204 230 209 232 203 205 205 208 185 166 168 182 183 178 182 188 177 123 112 111 107 112 116 124 125 112 113 119 109 107 102 100 112 94 48 66 359 19 20
203 201 181 200 207 199 213 245 227 221 208 187 143 145 167 189 181 162 125 124 114 113 116 112 116 118 104 102 105 110 114 94 77 91 116 168 114 72 14 66 47 21 341
200 209 199 186 198 209 222 211 258 206 148 130 143 159 167 172 126 127 124 119 120 120 121 114 112 121 118 111 108 102 85 72 91 64 35 92 83 69 53 55 28 348 331
257 269 191 184 179 195 205 212 173 139 138 140 145 152 134 134 130 130 128 124 120 112 112 120 124 127 122 115 105 95 90 78 70 22 15 48 67 68 60 33 352 25 33
228 253 250 174 133 150 163 156 140 124 129 140 140 126 127 129 126 119 114 116 118 123 125 121 125 117 109 105 101 91 88 86 84 57 15 358 74 77 43 326 43 27 24